C/2017 O1 ( ASASSN )

Japanese version
Home page
Updated on August 28, 2018

---------------------------------------------------------------------

* Profile

Discovery Date July 19, 2017
Magnitude 15.3 mag
Discoverer All-Sky Automated Survey for Supernovae (ASASSN)

* Pictures

* Orbital Elements

Epoch 2017 Oct. 14.0 TT = JDT 2458040.5
T 2017 Oct. 14.78527 TT                                 MPCW
q   1.4986859            (2000.0)            P               Q
z  +0.0023894      Peri.   20.90792     +0.72168404     -0.63351890
 +/-0.0000008      Node    25.80945     +0.50849163     +0.21172321
e   0.9964191      Incl.   39.84837     +0.46968970     +0.74419559
From 2704 observations 2017 July 19-2018 May 19, mean residual 0".4.

* Finding Charts

* Magnitudes Graph

        m1 = 5.0 + 5 log d + 20.0 log r(t + 35)

---------------------------------------------------------------------

The orbital elements are published on M.P.E.C. 2018-K95.
The charts are made with StellaNavigator Ver.10 (AstroArts).
The magnitudes graphs are made with Comet for Windows.

---------------------------------------------------------------------

Copyright(C) Seiichi Yoshida (comet@aerith.net). All rights reserved.